MOZHAYETS

Satellite information

Favourite Embed

Satellite Type and Status

PAYLOADIN ORBIT

Key statistics

Satellite MOZHAYETS at a glance.

Uptime

8417

Days in orbit

Revolutions

≈ 14.6

Per day

Orbit

SSO

Sun Synchronous Orbit

Inclination

98.5

Latest

Satellite identification and parameters

Extended collection of information and parameters for MOZHAYETS.

Object identification

Identified? True

Debris? False

Object name: MOZHAYETS

International designator: 2002-054B

Object number (NORAD): 27560

Object ID (CCSDS): 27560

Country: COMMONWEALTH OF INDEPENDENT STATES (CIS)

Current information (Y/N): Y

RCS size: LARGE

Orbital parameters

Period: 98.527 minutes

Inclination: 98.4574 deg

SMA: 7066.367 km

Apoapsis: 714.537 km

Periapsis: 661.928 km

RAAN: 193.9902 deg

Eccentricy: 0.00372247

Argument of periapsis: 236.5398 deg

Mean anomaly: 297.6019 deg

Mean motion: 14.61532359 rev/day

Mean motion (dot): 0.00001331 rev/day2

B* drag term: 0.00027598452 1/REarth

Two-line elements (TLE)

Creation date: Dec. 12, 2025, 10:14 a.m.

Reference frame: TEME

Reference center: EARTH

Epoch: Dec. 12, 2025, 7:47 a.m. UTC

TLE line 0: 0 MOZHAYETS

TLE line 1: 1 27560U 02054B 25346.32449887 .00001331 00000-0 27598-3 0 9998

TLE line 2: 2 27560 98.4574 193.9902 0037225 236.5398 297.6019 14.61532359224974

Live tracking on map

Real-time ground track for satellite MOZHAYETS.

In-orbit conjunctions

There are no conjunctions computed for MOZHAYETS, at the moment. Check back to stay up to date, as we update our databases every day.

Go to all conjunctions

Associated space launch

ALSAT 1 was an Algerian imaging minisatellite. The 90-kg satellite was the first part of an international Disaster Monitoring System (DMS) for alerting natural/man-made disasters.

MOZHAYETS was lifted into orbit during the mission ‘Kosmos-3M | AlSat-1’, on board a Kosmos-3M space rocket.

The launch took place on Nov. 28, 2002, 6:07 a.m. from 132/1 (132L).

For more information about the launch, click the button.

Launch to space Kosmos-3M | AlSat-1
Kosmos-3M | AlSat-1

Agency: N/A

Status: Launch Successful

Launch date: Nov. 28, 2002, 6:07 a.m. UTC

Rocket: Kosmos-3M

Launch pad: 132/1 (132L)

Location: Plesetsk Cosmodrome, Russian Federation

...

Latest news about this satellite

There are no fresh news available about this satellite. Check back as we update our databases every day.


Newsletter sign-up

Weekly statistics, charts and insights to help you stay on top of the space industry.